Flag for U.S.A. Weather past 2 weeks in Stockton, California, U.S.A.

Now
42 °F

Fog.


Feels Like: 39 °F
Forecast: 41 / 62 °F
Wind: 5 mph from Southeast

Location: Stockton Metropolitan Airport

Current Time: Jan 25, 2015 at 9:17:25 PM

Latest Report: Jan 25, 2015 at 8:55 PM


Visibility: 5 mi

Pressure: 30.06 "Hg

Humidity: 92%

Dew point: 40 °F

Location of StocktonLocation

Historic Weather in Stockton — Graph

°F

Stockton temperature yesterday

Maximum temperature yesterday: 48 °F (at 3:55 PM)
Minimum temperature yesterday: 43 °F (at 9:55 AM)
Average temperature yesterday: 45 °F

Past Weeks' High & Low Weather Summary

 TemperatureHumidityPressure
High62 °F (Jan 11, 2:55 PM)100% (Jan 11, 5:55 AM)30.39 "Hg (Jan 11, 5:55 AM)
Low36 °F (Jan 23, 1:55 AM)62% (Jan 12, 2:55 PM)29.98 "Hg (Jan 10, 7:55 PM)
Average48 °F91%30.21 "Hg
* Reported Jan 10 7:55 PM — Jan 25 7:55 PM, Stockton, Weather by CustomWeather, © 2014

Note: Actual official high and low records may vary slightly from our data, if they occured in-between our weather recording intervals... More about our weather records

Advertising

Stockton weather history for previous 24 hours

 ConditionsComfort  
Time TempWeatherWind HumidityBarometerVisibility
7:55 PM
Jan 25
42 °FFog.5 mph89%30.05 "Hg5 mi
6:55 PM45 °FClear.7 mph86%30.05 "Hg7 mi
5:55 PM48 °FClear.8 mph80%30.03 "Hg8 mi
4:55 PM51 °FSunny.7 mph74%30.03 "Hg5 mi
3:55 PM55 °FSunny.5 mph67%30.04 "Hg5 mi
2:55 PM55 °FSunny.5 mph69%30.06 "Hg5 mi
1:55 PM53 °FSunny.No wind74%30.07 "Hg5 mi
12:55 PM51 °FHaze.3 mph77%30.10 "Hg5 mi
11:55 AM47 °FFog.No wind86%30.14 "Hg3 mi
10:55 AM45 °FFog.3 mph93%30.18 "Hg3 mi
9:55 AM44 °FFog.5 mph93%30.19 "Hg2 mi
8:55 AM44 °FFog.3 mph93%30.18 "Hg1 mi
7:55 AM44 °FFog.No wind93%30.17 "Hg1 mi
7:03 AM43 °FFog.No wind100%30.18 "Hg2 mi
6:55 AM43 °FFog.No wind97%30.17 "Hg2 mi
5:55 AM44 °FFog.3 mph93%30.17 "Hg2 mi
4:55 AM44 °FFog.5 mph93%30.18 "Hg2 mi
3:55 AM44 °FFog.7 mph93%30.18 "Hg3 mi
3:02 AM45 °FFog.8 mph93%30.19 "Hg3 mi
2:55 AM44 °FFog.7 mph96%30.19 "Hg2 mi
1:55 AM44 °FFog.8 mph93%30.19 "Hg3 mi
12:55 AM44 °FFog.9 mph96%30.19 "Hg3 mi
11:55 PM
Jan 24
44 °FFog.6 mph96%30.19 "Hg2 mi
10:55 PM44 °FFog.9 mph96%30.19 "Hg2 mi
9:55 PM45 °FFog.6 mph93%30.18 "Hg2 mi
Weather by CustomWeather, © 2014

See weather overviewHow to use our weather pages